Weather History for Phoenix Deer Valley, AZ

Change the Weather History Date:

Thursday, December 6, 2012

  Actual Average Record
Temperature  
Mean Temperature 62 °F -  
Max Temperature 73 °F 63 °F 75 °F (2003)
Min Temperature 52 °F 43 °F 30 °F (2013)
Degree Days  
Heating Degree Days 2    
Growing Degree Days 12 (Base 50)    
Moisture  
Dew Point 32 °F    
Average Humidity 33    
Maximum Humidity 41    
Minimum Humidity 24    
Precipitation  
Precipitation 0.00 in - - ()
Sea Level Pressure  
Sea Level Pressure 29.84 in    
Wind  
Wind Speed 2 mph (North)    
Max Wind Speed 13 mph    
Max Gust Speed -    
Visibility 10 miles    
Events      
Averages and records for this station are not official NWS values.
T = Trace of Precipitation, MM = Missing Value Source: NWS Daily Summary

Daily Weather History Graph

Daily Weather History Graph

Search for Another Location

Airport:

Trip Planner

Search our weather history database for the weather conditions in past years. The results will help you decide how hot, cold, wet, or windy it might be!

Date:

Astronomy

Dec. 06, 2012 Rise Set
Actual Time 7:19 AM MST 5:19 PM MST
Civil Twilight 6:51 AM MST 5:47 PM MST
Nautical Twilight 6:21 AM MST 6:18 PM MST
Astronomical Twilight 5:50 AM MST 6:48 PM MST
Moon No Moon Rise 12:30 PM MST (12/6)
Length of Visible Light 10h 55m
Length of Day
10h 00m
Waning Gibbous, 48% of the Moon is Illuminated
Dec 6
Waning Gibbous
Dec 13
New
Dec 19
First Quarter
Dec 28
Full
Jan 4
Last Quarter

Hourly Weather History & Observations

Time (MST) Temp. Dew Point Humidity Pressure Visibility Wind Dir Wind Speed Gust Speed Precip Events Conditions
12:53 AM 57.0 °F 28.9 °F 34% 29.89 in 10.0 mi Calm Calm - N/A   Clear
1:53 AM 54.0 °F 28.0 °F 37% 29.89 in 10.0 mi Calm Calm - N/A   Clear
2:53 AM 54.0 °F 28.9 °F 38% 29.88 in 10.0 mi Calm Calm - N/A   Clear
3:53 AM 53.1 °F 28.9 °F 40% 29.87 in 10.0 mi Calm Calm - N/A   Clear
4:53 AM 55.0 °F 30.0 °F 38% 29.87 in 10.0 mi NE 4.6 mph - N/A   Clear
5:53 AM 53.1 °F 28.9 °F 40% 29.87 in 10.0 mi NNE 3.5 mph - N/A   Clear
6:53 AM 52.0 °F 28.9 °F 41% 29.88 in 10.0 mi NE 3.5 mph - N/A   Clear
7:53 AM 54.0 °F 28.9 °F 38% 29.89 in 10.0 mi Calm Calm - N/A   Clear
8:53 AM 59.0 °F 30.9 °F 35% 29.89 in 10.0 mi Calm Calm - N/A   Clear
9:53 AM 63.0 °F 30.9 °F 30% 29.90 in 10.0 mi Calm Calm - N/A   Clear
10:53 AM 66.9 °F 30.9 °F 26% 29.89 in 10.0 mi South 3.5 mph - N/A   Clear
11:53 AM 70.0 °F 30.9 °F 24% 29.86 in 10.0 mi South 5.8 mph - N/A   Clear
12:53 PM 72.0 °F 34.0 °F 25% 29.83 in 10.0 mi SW 6.9 mph - N/A   Clear
1:53 PM 72.0 °F 34.0 °F 25% 29.81 in 10.0 mi Calm Calm - N/A   Clear
2:53 PM 73.0 °F 34.0 °F 24% 29.78 in 10.0 mi Variable 3.5 mph - N/A   Clear
3:53 PM 72.0 °F 34.0 °F 25% 29.78 in 10.0 mi WSW 3.5 mph - N/A   Clear
4:53 PM 71.1 °F 35.1 °F 27% 29.78 in 10.0 mi SW 4.6 mph - N/A   Clear
5:53 PM 68.0 °F 35.1 °F 30% 29.78 in 10.0 mi WSW 4.6 mph - N/A   Clear
6:53 PM 64.9 °F 35.1 °F 33% 29.80 in 10.0 mi Calm Calm - N/A   Clear
7:53 PM 62.1 °F 35.1 °F 37% 29.81 in 10.0 mi Calm Calm - N/A   Clear
8:53 PM 62.1 °F 35.1 °F 37% 29.82 in 10.0 mi NE 5.8 mph - N/A   Clear
9:53 PM 60.1 °F 34.0 °F 38% 29.83 in 10.0 mi NNE 9.2 mph - N/A   Clear
10:53 PM 60.1 °F 33.1 °F 36% 29.83 in 10.0 mi NNE 12.7 mph - N/A   Clear
11:53 PM 57.9 °F 33.1 °F 39% 29.82 in 10.0 mi Calm Calm - N/A   Clear